This demonstration page uses our WeatherBlox Daily Observations layout. Learn more.

40.92945, -100.16068

Hourly Observations for March 7, 2020

Temp ( °F °C ) Dew Point ( °F °C ) Humidity (%) Winds ( mph kmh ) Pressure ( in mb ) Visibility ( mi km ) Precip ( " mm )
12:15 am 00:15 Clear 44 6.7 28 -2.1 54 54 SSE 14 22 30.15 1021 10 16.0934 0 0
12:35 am 00:35 Clear 43 6.3 28 -2.1 55 55 SSE 14 22 30.15 1021 10 16.0934 0 0
12:55 am 00:55 Clear 43 6.2 28 -2.1 56 56 SSE 14 22 30.15 1021 10 16.0934 0 0
1:15 am 01:15 Clear 43 6 28 -2.1 56 56 S 13 20 30.14 1021 10 16.0934 0 0
1:35 am 01:35 Clear 42 5.8 28 -2.2 57 57 S 12 19 30.14 1021 10 16.0934 0 0
1:55 am 01:55 Clear 43 5.9 28 -2.3 56 56 S 13 20 30.13 1020 10 16.0934 0 0
2:15 am 02:15 Clear 41 5.2 28 -2.5 58 58 S 10 17 30.13 1020 10 16.0934 0 0
2:35 am 02:35 Clear 42 5.6 28 -2.5 56 56 S 9 15 30.12 1020 10 16.0934 0 0
2:55 am 02:55 Clear 42 5.4 27 -2.6 57 57 SSE 8 13 30.11 1020 10 16.0934 0 0
3:15 am 03:15 Clear 42 5.7 27 -2.7 55 55 SSE 7 11 30.1 1019 10 16.0934 0 0
3:35 am 03:35 Clear 42 5.7 27 -2.7 55 55 SSE 7 11 30.1 1019 10 16.0934 0 0
3:55 am 03:55 Clear 42 5.3 27 -2.8 56 56 S 10 17 30.1 1019 10 16.0934 0 0
4:15 am 04:15 Clear 40 4.5 27 -2.7 60 60 S 10 17 30.09 1019 10 16.0934 0 0
4:35 am 04:35 Clear 38 3.5 27 -2.8 64 64 SSE 9 15 30.1 1019 10 16.0934 0 0
4:55 am 04:55 Clear 38 3.5 27 -2.6 65 65 SSE 9 15 30.1 1019 10 16.0934 0 0
5:15 am 05:15 Clear 38 3.3 28 -2.5 66 66 SSE 8 13 30.1 1019 10 16.0934 0 0
5:35 am 05:35 Clear 36 2.2 27 -2.7 70 70 SSE 10 17 30.11 1019 10 16.0934 0 0
5:55 am 05:55 Clear 35 1.7 27 -2.8 72 72 SSE 10 17 30.11 1020 10 16.0934 0 0
6:15 am 06:15 Clear 34 1.3 27 -2.8 74 74 SSE 6 9 30.1 1019 10 16.0934 0 0
6:35 am 06:35 Clear 35 1.9 28 -2.5 73 73 ESE 3 6 30.1 1019 10 16.0934 0 0
6:55 am 06:55 Clear 37 2.6 28 -2.3 70 70 SE 5 7 30.09 1019 10 16.0934 0 0
7:15 am 07:15 Sunny 36 2.1 28 -2.2 73 73 SSE 6 9 30.1 1019 10 16.0934 0 0
7:35 am 07:35 Sunny 36 2.4 29 -1.5 76 76 SSE 7 11 30.09 1019 10 16.0934 0 0
7:55 am 07:55 Sunny 38 3.5 31 -0.7 74 74 SSE 6 9 30.08 1019 10 16.0934 0 0
8:15 am 08:15 Sunny 40 4.4 32 0 73 73 SSE 7 11 30.06 1018 10 16.0934 0 0
8:35 am 08:35 Sunny 42 5.7 32 0.1 68 68 S 8 13 30.05 1018 10 16.0934 0 0
8:55 am 08:55 Sunny 44 6.9 34 0.9 66 66 S 12 19 30.04 1017 10 16.0934 0 0
9:15 am 09:15 Sunny 47 8.3 35 1.4 62 62 S 13 20 30.03 1017 10 16.0934 0 0
9:35 am 09:35 Sunny 49 9.6 36 2 59 59 S 10 17 30 1016 10 16.0934 0 0
9:55 am 09:55 Sunny 50 10.2 36 2.3 58 58 SSW 14 22 30 1016 10 16.0934 0 0
10:15 am 10:15 Sunny 52 11.1 37 2.7 57 57 S 14 22 29.99 1016 10 16.0934 0 0
10:35 am 10:35 Sunny 55 12.7 38 3.3 53 53 SSW 14 22 29.97 1015 10 16.0934 0 0
10:55 am 10:55 Sunny 57 14 38 3.4 49 49 SSW 15 24 29.94 1014 10 16.0934 0 0
11:15 am 11:15 Sunny 58 14.3 38 3.5 48 48 S 15 24 29.94 1014 10 16.0934 0 0
11:35 am 11:35 Sunny 59 15 38 3.5 46 46 S 20 31 29.93 1013 10 16.0934 0 0
11:55 am 11:55 Sunny 60 15.3 39 3.9 47 47 S 16 26 29.92 1013 10 16.0934 0 0
12:15 pm 12:15 Sunny 62 16.5 39 3.7 43 43 S 16 26 29.9 1013 10 16.0934 0 0
12:35 pm 12:35 Sunny 65 18.3 39 3.8 38 38 S 17 28 29.88 1012 10 16.0934 0 0
12:55 pm 12:55 Sunny 66 18.9 39 3.7 37 37 S 16 26 29.86 1011 10 16.0934 0 0
1:15 pm 13:15 Sunny 67 19.3 38 3.6 36 36 S 18 30 29.84 1010 10 16.0934 0 0
1:35 pm 13:35 Sunny 67 19.6 39 3.8 35 35 S 18 30 29.83 1010 10 16.0934 0 0
1:55 pm 13:55 Sunny 67 19.2 38 3.3 35 35 S 18 30 29.82 1010 10 16.0934 0 0
2:15 pm 14:15 Sunny 68 20 38 3.5 34 34 S 22 35 29.81 1010 10 16.0934 0 0
2:35 pm 14:35 Sunny 68 20.1 38 3.3 33 33 SSW 17 28 29.8 1009 10 16.0934 0 0
2:55 pm 14:55 Sunny 72 22 38 3.2 29 29 SSW 23 37 29.78 1008 10 16.0934 0 0
3:15 pm 15:15 Sunny 72 22.4 38 3.3 29 29 SSW 21 33 29.76 1008 10 16.0934 0 0
3:35 pm 15:35 Sunny 72 22.3 37 2.8 28 28 SSW 20 31 29.76 1008 10 16.0934 0 0
3:55 pm 15:55 Sunny 73 22.7 37 2.9 27 27 SSW 25 41 29.75 1007 10 16.0934 0 0
4:15 pm 16:15 Sunny 73 22.5 36 2.3 27 27 SSW 17 28 29.74 1007 10 16.0934 0 0
4:35 pm 16:35 Sunny 72 22.2 36 2.4 27 27 S 18 30 29.74 1007 10 16.0934 0 0
4:55 pm 16:55 Sunny 73 22.5 36 2.4 27 27 SSW 17 28 29.73 1007 10 16.0934 0 0
5:15 pm 17:15 Sunny 72 22.2 36 2.1 27 27 S 22 35 29.73 1007 10 16.0934 0 0
5:35 pm 17:35 Sunny 71 21.6 35 1.8 27 27 S 18 30 29.74 1007 10 16.0934 0 0
5:55 pm 17:55 Sunny 69 20.7 36 2 29 29 S 10 17 29.75 1007 10 16.0934 0 0
6:15 pm 18:15 Sunny 67 19.7 35 1.5 30 30 S 12 19 29.76 1008 10 16.0934 0 0
6:35 pm 18:35 Sunny 65 18.3 35 1.6 33 33 S 13 20 29.77 1008 10 16.0934 0 0
6:55 pm 18:55 Clear 63 17.2 35 1.7 35 35 S 13 20 29.78 1008 10 16.0934 0 0
7:15 pm 19:15 Clear 62 16.5 35 1.7 37 37 S 16 26 29.78 1009 10 16.0934 0 0
7:35 pm 19:35 Clear 61 16 35 1.6 38 38 S 16 26 29.79 1009 10 16.0934 0 0
7:55 pm 19:55 Clear 60 15.7 35 1.5 38 38 S 14 22 29.8 1009 10 16.0934 0 0
8:15 pm 20:15 Clear 60 15.3 35 1.5 39 39 SSE 18 30 29.8 1009 10 16.0934 0 0
8:35 pm 20:35 Clear 59 15.2 34 1.1 39 39 SSE 21 33 29.8 1009 10 16.0934 0 0
8:55 pm 20:55 Clear 58 14.6 34 0.9 40 40 S 22 35 29.81 1009 10 16.0934 0 0
9:15 pm 21:15 Clear 57 14 33 0.8 41 41 S 22 35 29.81 1010 10 16.0934 0 0
9:35 pm 21:35 Clear 57 13.9 33 0.8 41 41 S 24 39 29.82 1010 10 16.0934 0 0
9:55 pm 21:55 Clear 56 13.5 33 0.7 42 42 S 20 31 29.82 1010 10 16.0934 0 0
10:15 pm 22:15 Clear 56 13.3 33 0.6 42 42 S 23 37 29.82 1010 10 16.0934 0 0
10:35 pm 22:35 Clear 55 12.5 33 0.5 44 44 S 21 33 29.83 1010 10 16.0934 0 0
10:55 pm 22:55 Clear 54 12.2 33 0.5 45 45 S 23 37 29.83 1010 10 16.0934 0 0
11:15 pm 23:15 Clear 53 11.8 33 0.5 46 46 S 21 33 29.83 1010 10 16.0934 0 0
11:35 pm 23:35 Clear 52 11.2 33 0.5 48 48 S 20 31 29.83 1010 10 16.0934 0 0
11:55 pm 23:55 Clear 52 11 33 0.5 49 49 S 20 31 29.83 1010 10 16.0934 0 0

Powered by AerisWeather